Tekamah, NE

2:00 AM CDT on June 28, 2017 (GMT -0500)
Tekamah

Weather History for KTQE - November, 2011

Change the Weather History Date:

Sunday, November 13, 2011

  Actual Average Record
Temperature  
Mean Temperature 46 °F -  
Max Temperature 55 °F 46 °F 78 °F (1999)
Min Temperature 37 °F 26 °F -3 °F (1986)
Degree Days  
Heating Degree Days 19    
Moisture  
Dew Point 32 °F    
Average Humidity 59    
Maximum Humidity 76    
Minimum Humidity 44    
Precipitation  
Precipitation 0.00 in - - ()
Sea Level Pressure  
Sea Level Pressure 29.43 in    
Wind  
Wind Speed 11 mph (SW)    
Max Wind Speed 28 mph    
Max Gust Speed 32 mph    
Visibility 10 miles    
Events      
Averages and records for this station are not official NWS values.
T = Trace of Precipitation, MM = Missing Value Source: NWS Daily Summary

Daily Weather History Graph

Daily Weather History Graph

Search for Another Location

Airport or City:

Trip Planner

Search our weather history database for the weather conditions in past years. The results will help you decide how hot, cold, wet, or windy it might be!

Date:

Astronomy

Nov. 13, 2011 Rise Set
Actual Time 7:11 AM CST 5:06 PM CST
Civil Twilight 6:41 AM CST 5:35 PM CST
Nautical Twilight 6:08 AM CST 6:09 PM CST
Astronomical Twilight 5:35 AM CST 6:42 PM CST
Moon 7:14 PM CST (11/13) 9:46 AM CST (11/13)
Length of Visible Light 10h 54m
Length of Day
9h 54m
Waning Gibbous, 92% of the Moon is Illuminated
Nov 13
Waning Gibbous
Nov 18
Last Quarter
Nov 25
New
Dec 2
First Quarter
Dec 10
Full

Hourly Weather History & Observations

Time (CST) Temp. Windchill Dew Point Humidity Pressure Visibility Wind Dir Wind Speed Gust Speed Precip Events Conditions
12:54 AM 43.0 °F 36.8 °F 34.0 °F 71% 29.30 in 10.0 mi South 11.5 mph - N/A   Clear
2:54 AM 44.1 °F 38.6 °F 36.0 °F 73% 29.29 in 10.0 mi WSW 10.4 mph - N/A   Mostly Cloudy
3:54 AM 48.9 °F - 35.1 °F 59% 29.28 in 10.0 mi West 4.6 mph - N/A   Mostly Cloudy
4:54 AM 46.9 °F - 37.0 °F 68% 29.24 in 10.0 mi SE 8.1 mph - N/A   Mostly Cloudy
5:54 AM 39.0 °F 33.4 °F 32.0 °F 76% 29.23 in 10.0 mi SSW 8.1 mph - N/A   Clear
6:54 AM 41.0 °F 35.2 °F 34.0 °F 76% 29.29 in 10.0 mi WSW 9.2 mph - N/A   Clear
7:54 AM 45.0 °F 39.3 °F 28.9 °F 53% 29.31 in 10.0 mi West 11.5 mph - N/A   Clear
8:54 AM 46.9 °F - 28.0 °F 48% 29.35 in 10.0 mi West 16.1 mph 24.2 mph N/A   Clear
9:54 AM 48.0 °F - 30.9 °F 52% 29.38 in 10.0 mi West 19.6 mph 28.8 mph N/A   Clear
10:54 AM 50.0 °F - 30.9 °F 48% 29.42 in 10.0 mi West 27.6 mph 32.2 mph N/A   Clear
11:54 AM 50.0 °F - 32.0 °F 50% 29.45 in 10.0 mi WNW 18.4 mph 27.6 mph 0.00 in   Clear
12:54 PM 52.0 °F - 32.0 °F 47% 29.45 in 10.0 mi WNW 16.1 mph - N/A   Clear
1:54 PM 55.0 °F - 34.0 °F 45% 29.45 in 10.0 mi WNW 17.3 mph - N/A   Clear
2:54 PM 55.9 °F - 34.0 °F 44% 29.47 in 10.0 mi WNW 16.1 mph - N/A   Clear
4:54 PM 50.0 °F - 32.0 °F 50% 29.53 in 10.0 mi West 5.8 mph - N/A   Clear
5:54 PM 45.0 °F 43.5 °F 30.0 °F 56% 29.56 in 10.0 mi West 3.5 mph - N/A   Clear
6:54 PM 41.0 °F 36.4 °F 28.0 °F 60% 29.56 in 10.0 mi South 6.9 mph - N/A   Clear
7:54 PM 41.0 °F 35.2 °F 28.9 °F 62% 29.55 in 10.0 mi South 9.2 mph - N/A   Clear
8:54 PM 44.1 °F 41.5 °F 30.9 °F 60% 29.58 in 10.0 mi SSW 4.6 mph - N/A   Clear
9:54 PM 43.0 °F 41.3 °F 32.0 °F 65% 29.57 in 10.0 mi SE 3.5 mph - N/A   Clear
10:54 PM 37.9 °F 30.9 °F 28.9 °F 70% 29.57 in 10.0 mi SSE 10.4 mph - N/A   Partly Cloudy
11:54 PM 37.9 °F 32.7 °F 30.0 °F 73% 29.55 in 10.0 mi SSE 6.9 mph - N/A   Partly Cloudy